GW1804 Weather Reports


time (UTC)temp
F
wind
direction
speed
knots
gust
knots
rain 1hr
in
rain 24hr
in
rain mn
in
humidity
%
barometer
mb
20260901201037 77 315 4.3 9.6 0.00 0.00 0.00 73 1015.2
20260901200535 77 307 4.3 11.3 0.00 0.00 0.00 72 1015.2
20260901200052 76 272 4.3 11.3 0.00 0.00 0.00 72 1015.3
20260901195536 77 334 4.3 7.8 0.00 0.00 0.00 72 1015.3
20260901195038 77 333 4.3 8.7 0.00 0.00 0.00 73 1015.3
20260901194559 77 236 4.3 8.7 0.00 0.00 0.00 72 1015.4
20260901194036 77 300 3.5 7.8 0.00 0.00 0.00 72 1015.4
20260901193535 77 306 3.5 7.0 0.00 0.00 0.00 74 1015.5
20260901193100 77 251 4.3 7.0 0.00 0.00 0.00 72 1015.5
20260901192537 76 293 3.5 7.0 0.00 0.00 0.00 72 1015.6
20260901192036 76 322 3.5 7.0 0.00 0.00 0.00 72 1015.6
20260901191556 76 245 3.5 7.0 0.00 0.00 0.00 73 1015.6
20260901191035 76 290 3.5 7.8 0.00 0.00 0.00 73 1015.6
20260901190536 76 296 4.3 9.6 0.00 0.00 0.00 73 1015.6
20260901190051 76 299 4.3 9.6 0.00 0.00 0.00 74 1015.7
20260901185536 76 279 3.5 7.8 0.00 0.00 0.00 74 1015.7
20260901185033 76 306 2.6 7.8 0.00 0.00 0.00 74 1015.7
20260901184605 75 238 2.6 7.8 0.00 0.00 0.00 74 1015.7
20260901184035 75 306 3.5 7.8 0.00 0.00 0.00 74 1015.7
20260901183537 75 290 2.6 7.8 0.00 0.00 0.00 74 1015.7
20260901183118 75 303 3.5 7.0 0.00 0.00 0.00 74 1015.8
20260901182533 75 244 3.5 7.0 0.00 0.00 0.00 75 1015.8
20260901182032 75 290 3.5 7.0 0.00 0.00 0.00 75 1015.8
20260901181554 75 259 2.6 6.1 0.00 0.00 0.00 76 1015.8
20260901181031 75 298 2.6 6.1 0.00 0.00 0.00 77 1015.8
20260901180536 75 292 2.6 7.0 0.00 0.00 0.00 76 1015.9
20260901180100 75 280 2.6 7.0 0.00 0.00 0.00 77 1015.9
20260901175533 74 261 1.7 7.0 0.00 0.00 0.00 78 1015.8
20260901175032 74 291 1.7 7.0 0.00 0.00 0.00 79 1015.7
20260901174558 74 280 1.7 7.0 0.00 0.00 0.00 79 1015.7
20260901174031 74 235 1.7 7.0 0.00 0.00 0.00 79 1015.7
20260901173531 73 41 2.6 7.0 0.00 0.00 0.00 79 1015.8
20260901173138 73 304 1.7 6.1 0.00 0.00 0.00 79 1015.7
20260901172533 73 277 2.6 6.1 0.00 0.00 0.00 80 1015.7
20260901172032 73 263 2.6 6.1 0.00 0.00 0.00 81 1015.7
20260901171604 73 292 1.7 5.2 0.00 0.00 0.00 81 1015.6
20260901171034 72 309 1.7 6.1 0.00 0.00 0.00 81 1015.7
20260901170532 72 290 1.7 6.1 0.00 0.00 0.00 82 1015.6
20260901170101 72 326 1.7 6.1 0.00 0.00 0.00 82 1015.6
20260901165535 71 273 1.7 5.2 0.00 0.00 0.00 83 1015.6
20260901165032 71 295 1.7 5.2 0.00 0.00 0.00 83 1015.5
20260901164553 71 302 0.9 5.2 0.00 0.00 0.00 83 1015.5
20260901164031 70 334 1.7 5.2 0.00 0.00 0.00 84 1015.5
20260901163531 70 254 0.9 5.2 0.00 0.00 0.00 84 1015.6
20260901163109 70 221 1.7 5.2 0.00 0.00 0.00 85 1015.6
20260901162532 70 349 0.9 5.2 0.00 0.00 0.00 85 1015.6
20260901162035 69 17 0.9 5.2 0.00 0.00 0.00 86 1015.6
20260901161606 69 15 0.0 3.5 0.00 0.00 0.00 87 1015.5
20260901161031 69 284 0.9 3.5 0.00 0.00 0.00 87 1015.4
20260901160532 69 0 1.7 4.3 0.00 0.00 0.00 87 1015.5
20260901160058 68 312 0.9 4.3 0.00 0.00 0.00 87 1015.4
20260901155532 68 309 0.9 3.5 0.00 0.00 0.00 88 1015.3
20260901155032 68 319 0.9 3.5 0.00 0.00 0.00 89 1015.4
20260901154554 68 0 0.0 3.5 0.00 0.00 0.00 90 1015.3
20260901154033 68 319 0.9 4.3 0.00 0.00 0.00 90 1015.3
20260901153533 68 290 1.7 4.3 0.00 0.00 0.00 91 1015.3
20260901153052 67 0 0.0 2.6 0.00 0.00 0.00 91 1015.2
20260901152534 67 19 0.9 2.6 0.00 0.00 0.00 91 1015.2
20260901152033 67 12 0.0 0.9 0.00 0.00 0.00 91 1015.2
20260901151602 67 0 0.0 0.9 0.00 0.00 0.00 91 1015.1
20260901151031 66 0 0.0 0.9 0.00 0.00 0.00 91 1015.0
20260901150532 66 0 0.0 0.9 0.00 0.00 0.00 91 1015.0
20260901150056 66 0 0.0 0.0 0.00 0.00 0.00 91 1015.0
20260901145533 66 0 0.0 0.9 0.00 0.00 0.00 91 1014.9
20260901145031 66 0 0.0 0.9 0.00 0.00 0.00 91 1015.0
20260901144553 66 0 0.0 0.9 0.00 0.00 0.00 91 1015.0
20260901144034 66 0 0.0 0.0 0.00 0.00 0.00 91 1014.9
20260901143531 65 0 0.0 0.0 0.00 0.00 0.00 91 1014.9
20260901143059 65 0 0.0 0.0 0.00 0.00 0.00 91 1014.9
20260901142533 65 0 0.0 0.0 0.00 0.00 0.00 91 1014.8
20260901142033 65 0 0.0 0.0 0.00 0.00 0.00 91 1014.9
20260901141604 65 0 0.0 0.0 0.00 0.00 0.00 90 1014.9
20260901141032 65 0 0.0 0.0 0.00 0.00 0.00 90 1014.9
20260901140531 65 0 0.0 0.0 0.00 0.00 0.00 90 1014.9
20260901140052 65 0 0.0 0.0 0.00 0.00 0.00 90 1014.8
20260901135532 65 0 0.0 0.0 0.00 0.00 0.00 90 1014.7
20260901135033 65 0 0.0 0.0 0.00 0.00 0.00 90 1014.6
20260901134553 65 0 0.0 0.0 0.00 0.00 0.00 90 1014.7
20260901134031 65 0 0.0 0.0 0.00 0.00 0.00 90 1014.5
20260901133536 65 0 0.0 0.0 0.00 0.00 0.00 90 1014.5
20260901133106 65 0 0.0 0.0 0.00 0.00 0.00 90 1014.3
20260901132532 65 0 0.0 0.0 0.00 0.00 0.00 89 1014.3
20260901132031 65 0 0.0 0.0 0.00 0.00 0.00 89 1014.3
20260901131557 65 0 0.0 0.0 0.00 0.00 0.00 89 1014.2
20260901131035 65 0 0.0 0.0 0.00 0.00 0.00 89 1014.2
20260901130532 65 0 0.0 0.0 0.00 0.00 0.00 89 1014.0
20260901130055 65 0 0.0 0.0 0.00 0.00 0.00 89 1014.1
20260901125531 65 0 0.0 0.0 0.00 0.00 0.00 89 1014.1
20260901125032 65 0 0.0 0.0 0.00 0.00 0.00 89 1014.0
20260901124552 65 0 0.0 0.0 0.00 0.00 0.00 89 1013.9
20260901124033 65 0 0.0 0.0 0.00 0.00 0.00 88 1013.8
20260901123532 66 0 0.0 0.0 0.00 0.00 0.00 89 1013.9
20260901123101 66 0 0.0 0.0 0.00 0.00 0.00 89 1013.9
20260901122531 66 0 0.0 0.0 0.00 0.00 0.00 89 1013.9
20260901122032 66 0 0.0 0.0 0.00 0.00 0.00 89 1013.8
20260901121559 66 0 0.0 0.0 0.00 0.00 0.00 89 1013.8
20260901121035 66 0 0.0 0.0 0.00 0.00 0.00 88 1013.8
20260901120535 66 0 0.0 0.0 0.00 0.00 0.00 88 1013.8
20260901120105 66 0 0.0 0.0 0.00 0.00 0.00 88 1013.8
20260901115531 66 0 0.0 0.0 0.00 0.00 0.00 88 1013.8
20260901115035 66 0 0.0 0.0 0.00 0.00 0.00 88 1013.8
20260901114551 66 0 0.0 0.0 0.00 0.00 0.00 88 1013.8
20260901114035 66 0 0.0 0.0 0.00 0.00 0.00 88 1013.9
20260901113535 67 0 0.0 0.0 0.00 0.00 0.00 88 1014.0
20260901113058 67 0 0.0 0.0 0.00 0.00 0.00 88 1014.0
20260901112535 67 0 0.0 0.9 0.00 0.00 0.00 88 1014.0
20260901112035 67 0 0.0 1.7 0.00 0.00 0.00 89 1014.0
20260901111559 67 38 0.0 1.7 0.00 0.00 0.00 89 1014.0
20260901111035 67 0 0.0 1.7 0.00 0.00 0.00 89 1014.0
20260901110531 67 0 0.0 1.7 0.00 0.00 0.00 89 1014.0
20260901110054 67 0 0.0 0.9 0.00 0.00 0.00 89 1014.0
20260901105535 67 0 0.0 0.9 0.00 0.00 0.00 89 1014.0
20260901105036 68 0 0.0 1.7 0.00 0.00 0.00 89 1014.1
20260901104602 68 0 0.0 1.7 0.00 0.00 0.00 89 1014.1
20260901104038 68 127 0.0 0.9 0.00 0.00 0.00 89 1014.1
20260901103536 68 0 0.0 0.9 0.00 0.00 0.00 89 1014.1
20260901103058 68 0 0.0 0.9 0.00 0.00 0.00 89 1014.0
20260901102535 68 0 0.0 0.9 0.00 0.00 0.00 89 1014.0
20260901102035 68 0 0.0 0.0 0.00 0.00 0.00 89 1014.0
20260901101605 68 0 0.0 0.0 0.00 0.00 0.00 89 1014.1
20260901101035 68 0 0.0 0.0 0.00 0.00 0.00 89 1014.1
20260901100538 68 0 0.0 0.0 0.00 0.00 0.00 89 1014.2
20260901100105 68 0 0.0 0.0 0.00 0.00 0.00 89 1014.2
20260901095534 68 0 0.0 0.0 0.00 0.00 0.00 89 1014.2
20260901095035 67 0 0.0 0.0 0.00 0.00 0.00 89 1014.3
20260901094555 67 0 0.0 0.0 0.00 0.00 0.00 89 1014.2
20260901094035 67 0 0.0 0.9 0.00 0.00 0.00 89 1014.3
20260901093539 67 0 0.0 0.9 0.00 0.00 0.00 89 1014.3
20260901093100 67 0 0.0 0.9 0.00 0.00 0.00 89 1014.2
20260901092535 67 0 0.0 0.0 0.00 0.00 0.00 89 1014.2
20260901092035 67 0 0.0 0.9 0.00 0.00 0.00 89 1014.1
20260901091552 67 0 0.0 0.9 0.00 0.00 0.00 89 1014.1
20260901091034 67 0 0.0 0.9 0.00 0.00 0.00 89 1014.1
20260901090534 67 0 0.0 0.9 0.00 0.00 0.00 89 1014.1
20260901090050 67 0 0.0 0.9 0.00 0.00 0.00 88 1014.1
20260901085534 67 0 0.0 0.9 0.00 0.00 0.00 88 1014.1
20260901085034 67 0 0.0 0.9 0.00 0.00 0.00 88 1014.0
20260901084613 67 0 0.0 0.9 0.00 0.00 0.00 88 1014.1
20260901084035 67 0 0.0 0.9 0.00 0.00 0.00 88 1014.1
20260901083537 67 0 0.0 0.9 0.00 0.00 0.00 88 1014.1
20260901083054 67 0 0.0 0.9 0.00 0.00 0.00 88 1014.2
20260901082534 67 0 0.0 0.9 0.00 0.00 0.00 88 1014.1
20260901082032 67 0 0.0 0.0 0.00 0.00 0.00 88 1014.1
20260901081551 67 0 0.0 0.0 0.00 0.00 0.00 88 1014.2
20260901081032 67 0 0.0 0.9 0.00 0.00 0.00 88 1014.2
20260901080533 67 0 0.0 0.9 0.00 0.00 0.00 88 1014.2
20260901080114 67 0 0.0 0.0 0.00 0.00 0.00 88 1014.2
20260901075533 67 0 0.0 0.0 0.00 0.00 0.00 88 1014.2
20260901075036 68 0 0.0 0.9 0.00 0.00 0.00 88 1014.2
20260901074604 68 0 0.0 0.9 0.00 0.00 0.00 88 1014.1
20260901074039 68 0 0.0 0.9 0.00 0.00 0.00 87 1014.1
20260901073535 68 0 0.0 0.0 0.00 0.00 0.00 87 1014.3
20260901073059 68 0 0.0 0.0 0.00 0.00 0.00 87 1014.3
20260901072532 68 0 0.0 0.0 0.00 0.00 0.00 87 1014.3
20260901072038 68 0 0.0 0.0 0.00 0.00 0.00 87 1014.2
20260901071553 68 0 0.0 0.0 0.00 0.00 0.00 87 1014.3
20260901071036 68 0 0.0 0.9 0.00 0.00 0.00 87 1014.3
20260901070536 68 0 0.0 0.9 0.00 0.00 0.00 87 1014.3
20260901070054 68 0 0.0 0.9 0.00 0.00 0.00 87 1014.2
20260901065532 68 0 0.0 0.0 0.00 0.00 0.00 87 1014.3
20260901065032 68 0 0.0 0.0 0.00 0.00 0.00 87 1014.2
20260901064559 68 0 0.0 0.0 0.00 0.00 0.00 87 1014.2
20260901064036 68 0 0.0 0.0 0.00 0.00 0.00 87 1014.2
20260901063535 69 0 0.0 0.0 0.00 0.00 0.00 87 1014.2
20260901063102 69 0 0.0 0.9 0.00 0.00 0.00 87 1014.1
20260901062535 69 0 0.0 0.9 0.00 0.00 0.00 87 1014.1
20260901062035 69 0 0.0 0.9 0.00 0.00 0.00 87 1014.2
20260901061556 69 0 0.0 0.0 0.00 0.00 0.00 87 1014.1
20260901061036 69 0 0.0 0.0 0.00 0.00 0.00 87 1014.1
20260901060536 69 0 0.0 0.0 0.00 0.00 0.00 87 1014.2
20260901060052 69 0 0.0 0.0 0.00 0.00 0.00 87 1014.1
20260901055531 69 0 0.0 0.0 0.00 0.00 0.00 87 1014.1
20260901055033 69 0 0.0 0.0 0.00 0.00 0.00 87 1014.2
20260901054600 69 0 0.0 0.0 0.00 0.00 0.00 87 1014.2
20260901054035 69 0 0.0 0.0 0.00 0.00 0.00 87 1014.1
20260901053535 69 0 0.0 0.0 0.00 0.00 0.00 87 1014.1
20260901053104 69 0 0.0 0.0 0.00 0.00 0.00 86 1014.1
20260901052533 69 0 0.0 0.9 0.00 0.00 0.00 86 1014.1
20260901052031 69 0 0.0 0.9 0.00 0.00 0.00 86 1014.1
20260901051554 69 0 0.0 0.9 0.00 0.00 0.00 86 1014.0
20260901051031 69 0 0.0 0.9 0.00 0.00 0.00 86 1014.1
20260901050531 69 0 0.0 0.0 0.00 0.00 0.00 86 1014.0
20260901050059 69 0 0.0 0.0 0.00 0.00 0.00 86 1014.0
20260901045533 69 0 0.0 0.0 0.00 0.00 0.00 86 1014.0
20260901045035 69 0 0.0 0.0 0.00 0.00 0.00 86 1014.1
20260901044604 69 0 0.0 0.0 0.00 0.00 0.00 86 1014.0
20260901044035 69 0 0.0 0.0 0.00 0.00 0.00 86 1014.1
20260901043532 69 0 0.0 0.0 0.00 0.00 0.00 85 1014.1
20260901043056 69 0 0.0 0.0 0.00 0.00 0.00 85 1014.1
20260901042535 69 0 0.0 0.0 0.00 0.00 0.00 86 1014.0
20260901042037 69 0 0.0 0.0 0.00 0.00 0.00 86 1014.0
20260901041617 69 0 0.0 0.0 0.00 0.00 0.00 86 1014.0
20260901041031 69 0 0.0 0.9 0.00 0.00 0.00 86 1014.0
20260901040533 70 0 0.0 0.9 0.00 0.00 0.00 86 1013.9
20260901040136 70 0 0.0 0.9 0.00 0.00 0.00 86 1013.9
20260901035534 70 0 0.0 1.7 0.00 0.00 0.00 86 1013.9
20260901035032 70 0 0.0 1.7 0.00 0.00 0.00 86 1013.8
20260901034556 70 205 0.0 1.7 0.00 0.00 0.00 85 1013.8
20260901034035 70 0 0.0 1.7 0.00 0.00 0.00 85 1013.7
20260901033535 70 0 0.0 0.9 0.00 0.00 0.00 85 1013.6
20260901033053 70 0 0.0 0.9 0.00 0.00 0.00 85 1013.6
20260901032535 70 215 0.0 1.7 0.00 0.00 0.00 84 1013.5
20260901032035 70 0 0.0 1.7 0.00 0.00 0.00 84 1013.4
20260901031551 70 0 0.0 1.7 0.00 0.00 0.00 83 1013.4
20260901031032 70 0 0.0 1.7 0.00 0.00 0.00 83 1013.4
20260901030535 70 261 0.0 0.9 0.00 0.00 0.00 83 1013.3
20260901030106 70 0 0.0 0.9 0.00 0.00 0.00 83 1013.3
20260901025531 70 0 0.0 1.7 0.00 0.00 0.00 82 1013.2
20260901025034 71 0 0.0 1.7 0.00 0.00 0.00 82 1013.1
20260901024556 71 261 0.0 1.7 0.00 0.00 0.00 82 1013.0
20260901024034 71 0 0.0 2.6 0.00 0.00 0.00 82 1013.0
20260901023530 71 261 0.0 2.6 0.00 0.00 0.00 82 1013.0
20260901023101 71 312 0.9 2.6 0.00 0.00 0.00 81 1012.9
20260901022534 72 238 0.9 3.5 0.00 0.00 0.00 81 1013.0
20260901022034 72 277 0.9 3.5 0.00 0.00 0.00 81 1012.9
20260901021550 72 253 0.9 3.5 0.00 0.00 0.00 81 1012.9
20260901021035 72 290 0.9 5.2 0.00 0.00 0.00 81 1012.8
20260901020533 73 321 1.7 5.2 0.00 0.00 0.00 80 1012.8
20260901020101 73 283 1.7 3.5 0.00 0.00 0.00 80 1012.7
20260901015533 73 288 0.9 4.3 0.00 0.00 0.00 80 1012.6
20260901015032 74 286 1.7 4.3 0.00 0.00 0.00 79 1012.6
20260901014557 74 289 1.7 5.2 0.00 0.00 0.00 79 1012.5
20260901014033 74 313 1.7 5.2 0.00 0.00 0.00 79 1012.5
20260901013532 74 280 1.7 5.2 0.00 0.00 0.00 79 1012.5
20260901013058 74 277 1.7 5.2 0.00 0.00 0.00 78 1012.6
20260901012532 75 303 2.6 6.1 0.00 0.00 0.00 78 1012.6
20260901012032 75 300 1.7 6.1 0.00 0.00 0.00 78 1012.7
20260901011552 75 270 2.6 6.1 0.00 0.00 0.00 77 1012.8
20260901011032 75 275 1.7 7.8 0.00 0.00 0.00 77 1012.7
20260901010534 75 265 2.6 7.8 0.00 0.00 0.00 75 1012.7
20260901010106 76 309 2.6 6.1 0.00 0.00 0.00 75 1012.8
20260901005532 76 253 2.6 6.1 0.00 0.00 0.00 74 1012.8
20260901005032 76 300 2.6 6.1 0.00 0.00 0.00 74 1012.9
20260901004600 76 271 2.6 6.1 0.00 0.00 0.00 74 1012.9
20260901004032 76 286 3.5 6.1 0.00 0.00 0.00 74 1012.9
20260901003533 76 296 1.7 7.0 0.00 0.00 0.00 74 1012.9
20260901003059 76 309 2.6 7.0 0.00 0.00 0.00 75 1012.9
20260901002533 77 269 2.6 7.0 0.00 0.00 0.00 75 1012.9
20260901002033 76 292 2.6 7.0 0.00 0.00 0.00 75 1012.9
20260901001551 77 246 2.6 7.0 0.00 0.00 0.00 75 1012.9
20260901001034 77 284 2.6 7.0 0.00 0.00 0.00 76 1012.9
20260901000532 77 300 3.5 7.0 0.00 0.00 0.00 76 1012.9
20260901000104 77 294 2.6 7.0 0.00 0.00 0.00 76 1012.9
20260831235532 77 298 3.5 9.6 0.00 0.00 0.00 75 1012.8
20260831235033 77 284 2.6 9.6 0.00 0.00 0.00 76 1012.9
20260831234556 77 267 3.5 9.6 0.00 0.00 0.00 76 1013.0
20260831234032 77 244 2.6 7.0 0.00 0.00 0.00 77 1013.0
20260831233534 78 262 3.5 7.0 0.00 0.00 0.00 75 1013.1
20260831233055 77 310 2.6 7.8 0.00 0.00 0.00 76 1013.0
20260831232532 78 290 4.3 7.8 0.00 0.00 0.00 75 1013.0
20260831232033 78 289 2.6 7.8 0.00 0.00 0.00 75 1012.9
20260831231553 78 279 2.6 7.8 0.00 0.00 0.00 75 1012.9
20260831231035 78 244 4.3 9.6 0.00 0.00 0.00 75 1012.9
20260831230533 78 296 2.6 9.6 0.00 0.00 0.00 75 1012.9
20260831230113 78 266 3.5 9.6 0.00 0.00 0.00 75 1012.9
20260831225532 78 296 3.5 8.7 0.00 0.00 0.00 75 1012.9
20260831225033 78 319 3.5 8.7 0.00 0.00 0.00 75 1013.0
20260831224559 78 306 3.5 7.8 0.00 0.00 0.00 75 1013.0
20260831224032 78 325 3.5 8.7 0.00 0.00 0.00 75 1013.0
20260831223534 78 314 4.3 8.7 0.00 0.00 0.00 75 1013.0
20260831223107 78 294 4.3 8.7 0.00 0.00 0.00 75 1013.1
20260831222532 78 292 3.5 8.7 0.00 0.00 0.00 75 1013.1
20260831222033 78 277 4.3 8.7 0.00 0.00 0.00 75 1013.2
20260831221603 78 234 3.5 8.7 0.00 0.00 0.00 74 1013.3
20260831221032 78 281 3.5 8.7 0.00 0.00 0.00 75 1013.4
20260831220534 78 264 4.3 8.7 0.00 0.00 0.00 74 1013.4
20260831220100 79 273 4.3 7.8 0.00 0.00 0.00 73 1013.5
20260831215532 79 250 4.3 7.8 0.00 0.00 0.00 74 1013.4
20260831215032 79 304 4.3 7.8 0.00 0.00 0.00 73 1013.4
20260831214607 79 277 4.3 7.8 0.00 0.00 0.00 73 1013.4
20260831214032 79 261 2.6 7.8 0.00 0.00 0.00 74 1013.4
20260831213533 79 279 3.5 8.7 0.00 0.00 0.00 74 1013.5
20260831213053 79 224 3.5 8.7 0.00 0.00 0.00 74 1013.5
20260831212533 78 290 4.3 9.6 0.00 0.00 0.00 74 1013.5
20260831212033 78 330 3.5 9.6 0.00 0.00 0.00 74 1013.6
20260831211601 78 268 3.5 9.6 0.00 0.00 0.00 74 1013.6
20260831211035 79 360 3.5 8.7 0.00 0.00 0.00 74 1013.6
20260831210531 78 281 4.3 8.7 0.00 0.00 0.00 74 1013.8
20260831210057 78 292 3.5 8.7 0.00 0.00 0.00 75 1013.8
20260831205536 78 284 3.5 7.8 0.00 0.00 0.00 74 1013.8
20260831205036 78 252 3.5 8.7 0.00 0.00 0.00 74 1013.8
20260831204558 78 227 3.5 8.7 0.00 0.00 0.00 74 1013.9
20260831204039 78 260 3.5 7.8 0.00 0.00 0.00 74 1013.9
20260831203536 78 272 2.6 7.8 0.00 0.00 0.00 75 1013.9
20260831203050 78 255 4.3 10.4 0.00 0.00 0.00 75 1014.0
20260831202533 78 268 4.3 10.4 0.00 0.00 0.00 75 1013.9
20260831202036 78 224 2.6 8.7 0.00 0.00 0.00 76 1014.0
20260831201553 78 279 4.3 8.7 0.00 0.00 0.00 75 1014.0